La Porte, IN

2:00 PM CDT on September 25, 2017 (GMT -0500)
La Porte Municipal

Weather History for KPPO - April, 2013

Change the Weather History Date:

Thursday, April 11, 2013

  Actual Average (KSBN) Record (KSBN)
Temperature  
Mean Temperature 43 °F -  
Max Temperature 45 °F 56 °F 90 °F (1930)
Min Temperature 41 °F 35 °F 16 °F (1909)
Degree Days  
Heating Degree Days 22    
Moisture  
Dew Point 43 °F    
Average Humidity 98    
Maximum Humidity 100    
Minimum Humidity 94    
Precipitation  
Precipitation 0.98 in - - ()
Sea Level Pressure  
Sea Level Pressure 29.67 in    
Wind  
Wind Speed 11 mph (East)    
Max Wind Speed 20 mph    
Max Gust Speed 25 mph    
Visibility 5 miles    
Events Rain , Thunderstorm    
Averages and records for this station are not official NWS values.
T = Trace of Precipitation, MM = Missing Value Source: NWS Daily Summary

Daily Weather History Graph

Daily Weather History Graph

Search for Another Location

Airport or City:

Trip Planner

Search our weather history database for the weather conditions in past years. The results will help you decide how hot, cold, wet, or windy it might be!

Date:

Astronomy

Apr. 11, 2013 Rise Set
Actual Time 6:13 AM CDT 7:23 PM CDT
Civil Twilight 5:44 AM CDT 7:52 PM CDT
Nautical Twilight 5:10 AM CDT 8:26 PM CDT
Astronomical Twilight 4:34 AM CDT 9:02 PM CDT
Moon 6:43 AM CDT (4/11) 8:58 PM CDT (4/11)
Length of Visible Light 14h 07m
Length of Day
13h 10m
New Moon, 2% of the Moon is Illuminated
Apr 11
New Moon
Apr 18
First Quarter
Apr 25
Full
May 2
Last Quarter
May 9
New

Hourly Weather History & Observations

Time (CDT) Temp. Windchill Dew Point Humidity Pressure Visibility Wind Dir Wind Speed Gust Speed Precip Events Conditions
12:15 AM 41.5 °F 35.9 °F 41.2 °F 99% 29.84 in 4.0 mi NNE 9.2 mph - 0.05 in Rain , Thunderstorm Thunderstorms and Rain
12:35 AM 41.2 °F 34.5 °F 41.0 °F 99% 29.81 in 1.2 mi NE 11.5 mph 18.4 mph 0.22 in Thunderstorm Thunderstorm
12:55 AM 41.2 °F 35.0 °F 41.0 °F 99% 29.81 in 1.2 mi NE 10.4 mph 20.7 mph 0.43 in   Overcast
1:15 AM 41.4 °F 36.8 °F 41.0 °F 99% 29.84 in 2.5 mi NE 6.9 mph - 0.09 in   Unknown
1:35 AM 41.5 °F 34.6 °F 41.2 °F 99% 29.82 in 2.5 mi ENE 12.7 mph - 0.17 in   Overcast
1:55 AM 41.5 °F 35.0 °F 41.2 °F 99% 29.80 in 5.0 mi ENE 11.5 mph - 0.20 in Rain Rain
2:15 AM 41.5 °F 35.9 °F 41.2 °F 99% 29.82 in 5.0 mi ENE 9.2 mph - 0.03 in Rain Rain
2:35 AM 41.5 °F 36.4 °F 41.2 °F 99% 29.79 in 7.0 mi NE 8.1 mph - 0.05 in Rain Rain
2:55 AM 41.5 °F 37.8 °F 41.2 °F 99% 29.82 in 10.0 mi NE 5.8 mph - 0.06 in Rain Light Rain
3:15 AM 41.5 °F 33.2 °F 41.2 °F 99% 29.77 in 10.0 mi East 17.3 mph - N/A Rain Rain
3:35 AM 41.4 °F 33.3 °F 41.0 °F 99% 29.75 in 10.0 mi ESE 16.1 mph 23.0 mph N/A Rain Light Rain
3:55 AM 41.9 °F 34.6 °F 41.4 °F 98% 29.74 in 10.0 mi East 13.8 mph - N/A   Overcast
4:15 AM 42.1 °F 35.7 °F 41.5 °F 98% 29.74 in 10.0 mi East 11.5 mph - N/A   Overcast
4:35 AM 42.3 °F 35.1 °F 41.4 °F 97% 29.74 in 10.0 mi East 13.8 mph 20.7 mph N/A   Overcast
4:55 AM 42.4 °F 35.3 °F 41.0 °F 95% 29.74 in 10.0 mi ESE 13.8 mph - N/A   Overcast
5:15 AM 42.4 °F 35.0 °F 41.0 °F 95% 29.72 in 10.0 mi East 15.0 mph 19.6 mph N/A   Overcast
5:35 AM 42.4 °F 35.3 °F 41.0 °F 95% 29.72 in 10.0 mi East 13.8 mph 19.6 mph N/A   Overcast
5:55 AM 42.6 °F 35.6 °F 41.0 °F 94% 29.72 in 10.0 mi East 13.8 mph - N/A   Overcast
6:15 AM 42.8 °F 36.2 °F 41.4 °F 95% 29.74 in 10.0 mi ESE 12.7 mph 18.4 mph N/A   Overcast
6:35 AM 42.8 °F 35.1 °F 41.9 °F 97% 29.73 in 10.0 mi East 16.1 mph - N/A   Light Drizzle
6:55 AM 42.8 °F 35.4 °F 41.5 °F 95% 29.73 in 10.0 mi East 15.0 mph 18.4 mph N/A   Overcast
7:15 AM 42.8 °F 35.1 °F 41.9 °F 97% 29.71 in 10.0 mi East 16.1 mph - N/A   Overcast
7:35 AM 43.0 °F 35.7 °F 42.1 °F 97% 29.70 in 7.0 mi East 15.0 mph 20.7 mph N/A   Overcast
7:55 AM 43.0 °F 35.7 °F 42.3 °F 97% 29.70 in 7.0 mi East 15.0 mph 19.6 mph N/A   Overcast
8:15 AM 43.0 °F 35.7 °F 42.3 °F 97% 29.70 in 5.0 mi East 15.0 mph 21.9 mph N/A   Overcast
8:35 AM 43.0 °F 35.1 °F 42.4 °F 98% 29.70 in 5.0 mi East 17.3 mph - N/A   Overcast
8:55 AM 43.2 °F 35.3 °F 42.8 °F 99% 29.69 in 4.0 mi East 17.3 mph - N/A   Drizzle
9:15 AM 43.2 °F 35.3 °F 42.8 °F 99% 29.69 in 5.0 mi East 17.3 mph 23.0 mph N/A   Overcast
9:35 AM 43.3 °F 35.5 °F 43.0 °F 99% 29.69 in 5.0 mi East 17.3 mph 23.0 mph N/A Rain Rain
10:15 AM 43.5 °F 36.1 °F 43.2 °F 99% 29.68 in 4.0 mi East 16.1 mph 25.3 mph 0.02 in Rain Rain
10:35 AM 43.7 °F 35.7 °F 43.2 °F 98% 29.68 in 3.0 mi East 18.4 mph 21.9 mph 0.03 in Rain Rain
10:55 AM 43.7 °F 36.9 °F 43.2 °F 98% 29.67 in 4.0 mi East 13.8 mph 20.7 mph 0.03 in Rain Light Rain
11:15 AM 43.9 °F 36.2 °F 43.5 °F 99% 29.68 in 3.0 mi East 17.3 mph - N/A   Overcast
11:35 AM 44.2 °F 37.0 °F 43.9 °F 99% 29.68 in 3.0 mi ESE 16.1 mph - N/A   Drizzle
11:55 AM 44.2 °F 38.0 °F 44.1 °F 99% 29.67 in 2.5 mi East 12.7 mph - N/A Rain Light Rain
12:15 PM 44.1 °F 37.4 °F 43.9 °F 99% 29.66 in 2.5 mi ESE 13.8 mph 20.7 mph 0.01 in Rain Light Rain
12:35 PM 44.1 °F 35.9 °F 43.9 °F 99% 29.64 in 2.0 mi East 19.6 mph 24.2 mph 0.01 in Rain Light Rain
12:55 PM 43.9 °F 37.5 °F 43.7 °F 99% 29.64 in 2.5 mi East 12.7 mph - 0.01 in Rain Light Rain
1:15 PM 44.1 °F 37.7 °F 43.9 °F 99% 29.64 in 5.0 mi East 12.7 mph 21.9 mph N/A   Overcast
1:35 PM 44.2 °F 36.7 °F 44.1 °F 99% 29.64 in 7.0 mi East 17.3 mph 21.9 mph N/A   Overcast
1:55 PM 44.6 °F 37.8 °F 44.2 °F 99% 29.64 in 5.0 mi ESE 15.0 mph 18.4 mph N/A   Overcast
2:15 PM 44.6 °F 38.8 °F 44.2 °F 99% 29.63 in 5.0 mi East 11.5 mph - N/A   Light Drizzle
2:35 PM 44.8 °F 39.0 °F 44.6 °F 99% 29.62 in 5.0 mi ESE 11.5 mph - N/A   Overcast
2:55 PM 44.6 °F 39.2 °F 44.6 °F 100% 29.62 in 4.0 mi ESE 10.4 mph - N/A   Drizzle
3:15 PM 45.0 °F 40.1 °F 44.8 °F 99% 29.62 in 4.0 mi ESE 9.2 mph - N/A   Drizzle
3:35 PM 44.8 °F 39.0 °F 44.6 °F 99% 29.62 in 1.8 mi ESE 11.5 mph - 0.14 in Rain Light Rain
3:55 PM 45.1 °F 39.5 °F 45.0 °F 99% 29.61 in 4.0 mi ESE 11.5 mph - 0.18 in Rain Rain
4:15 PM 45.1 °F 41.4 °F 45.0 °F 99% 29.62 in 5.0 mi ESE 6.9 mph - N/A   Drizzle
4:35 PM 45.1 °F 42.8 °F 45.0 °F 99% 29.62 in 5.0 mi SE 4.6 mph - N/A   Drizzle
4:55 PM 45.1 °F 40.3 °F 45.0 °F 99% 29.62 in 3.0 mi ESE 9.2 mph - N/A   Drizzle
5:15 PM 45.0 °F 39.7 °F 44.8 °F 99% 29.61 in 4.0 mi ESE 10.4 mph - N/A   Drizzle
5:35 PM 44.8 °F 39.0 °F 44.6 °F 99% 29.60 in 7.0 mi ESE 11.5 mph - N/A   Light Drizzle
5:55 PM 44.6 °F 40.2 °F 44.6 °F 100% 29.62 in 5.0 mi ESE 8.1 mph - N/A   Drizzle
6:15 PM 44.6 °F 43.1 °F 44.6 °F 100% 29.61 in 4.0 mi ESE 3.5 mph - 0.01 in   Heavy Drizzle
6:35 PM 44.6 °F 40.2 °F 44.6 °F 100% 29.61 in 4.0 mi ESE 8.1 mph - 0.02 in Rain Rain
6:55 PM 44.6 °F 40.7 °F 44.2 °F 99% 29.60 in 7.0 mi ESE 6.9 mph - 0.03 in   Drizzle
7:15 PM 44.2 °F 40.3 °F 44.1 °F 99% 29.61 in 7.0 mi ESE 6.9 mph - N/A   Drizzle
7:35 PM 44.1 °F 40.1 °F 43.9 °F 99% 29.60 in 5.0 mi East 6.9 mph - 0.01 in Rain Rain
7:55 PM 43.7 °F 39.1 °F 43.5 °F 99% 29.59 in 5.0 mi East 8.1 mph - 0.01 in Rain Rain
8:15 PM 43.3 °F 39.2 °F 43.2 °F 99% 29.59 in 5.0 mi East 6.9 mph - N/A   Light Drizzle
8:35 PM 43.2 °F 39.0 °F 43.0 °F 99% 29.60 in 5.0 mi East 6.9 mph - N/A Rain Rain
8:55 PM 42.8 °F 39.3 °F 42.8 °F 100% 29.59 in 3.0 mi East 5.8 mph - N/A   Light Drizzle
9:15 PM 42.8 °F 38.6 °F 42.4 °F 99% 29.58 in 2.5 mi East 6.9 mph - N/A   Light Drizzle
9:35 PM 42.8 °F 37.5 °F 42.4 °F 99% 29.58 in 2.0 mi ESE 9.2 mph - 0.01 in   Light Drizzle
9:55 PM 42.3 °F 37.3 °F 42.1 °F 99% 29.59 in 3.0 mi ESE 8.1 mph - 0.01 in   Drizzle
10:15 PM 41.9 °F 38.2 °F 41.9 °F 100% 29.59 in 4.0 mi ESE 5.8 mph - N/A   Drizzle
10:35 PM 41.7 °F 37.3 °F 41.4 °F 99% 29.60 in 4.0 mi ESE 6.9 mph - 0.01 in   Drizzle
10:55 PM 41.4 °F 36.8 °F 41.2 °F 99% 29.60 in 7.0 mi ESE 6.9 mph - 0.01 in Rain Light Rain
11:15 PM 41.2 °F 38.2 °F 41.0 °F 99% 29.59 in 2.0 mi ESE 4.6 mph - N/A   Light Drizzle
11:35 PM 41.2 °F 38.2 °F 41.0 °F 99% 29.59 in 1.2 mi ESE 4.6 mph - 0.01 in   Drizzle
11:55 PM 41.2 °F - 41.0 °F 99% 29.58 in 1.2 mi Calm Calm - 0.01 in   Drizzle